Teterboro, NJ

7:34 PM EST on November 21, 2019 (GMT -0500)
Teterboro

Weather History for KTEB - September, 2019

Change the Weather History Date:

Saturday, September 28, 2019

  Actual Average Record
Temperature  
Mean Temperature 72 °F -  
Max Temperature 88 °F 70 °F 89 °F (2014)
Min Temperature 61 °F 50 °F 41 °F (1991)
Cooling Degree Days 8    
Growing Degree Days 22 (Base 50)    
Moisture  
Dew Point 62 °F    
Average Humidity 70    
Maximum Humidity 87    
Minimum Humidity 47    
Precipitation  
Precipitation 0.00 in - - ()
Sea Level Pressure  
Sea Level Pressure 30.07 in    
Wind  
Wind Speed 4 mph ()    
Max Wind Speed 13 mph    
Max Gust Speed 21 mph    
Visibility 10.0 miles    
Events Fog    
Averages and records for this station are not official NWS values.
T = Trace of Precipitation, MM = Missing Value Source: Averaged Metar Reports

Daily Weather History Graph

Daily Weather History Graph

Search for Another Location

Airport or City:

Astronomy

Sep. 28, 2019 Rise Set
Actual Time 6:49 AM EDT 6:43 PM EDT
Civil Twilight 6:22 AM EDT 7:10 PM EDT
Nautical Twilight 5:50 AM EDT 7:42 PM EDT
Astronomical Twilight 5:17 AM EDT 8:15 PM EDT
Moon 6:21 AM EDT (9/28) 7:08 PM EDT (9/28)
Length of Visible Light 12h 48m
Length of Day
11h 54m
Waning Crescent, 0% of the Moon is Illuminated
Sep 28
Waning Crescent
Sep 28
New
Oct 5
First Quarter
Oct 13
Full
Oct 21
Last Quarter

Hourly Weather History & Observations

Time (EDT) Temp. Heat Index Dew Point Humidity Pressure Visibility Wind Dir Wind Speed Gust Speed Precip Events Conditions
12:51 AM 64.0 °F - 55.9 °F 75% 30.10 in 10.0 mi South 4.6 mph - N/A   Clear
1:51 AM 62.1 °F - 55.9 °F 80% 30.10 in 10.0 mi Calm Calm - N/A   Clear
2:51 AM 62.1 °F - 55.9 °F 80% 30.10 in 10.0 mi Calm Calm - N/A   Clear
3:51 AM 62.1 °F - 57.0 °F 84% 30.09 in 10.0 mi South 4.6 mph - N/A   Clear
4:51 AM 62.1 °F - 57.0 °F 84% 30.11 in 10.0 mi Calm Calm - N/A   Clear
5:51 AM 61.0 °F - 57.0 °F 87% 30.12 in 10.0 mi Calm Calm - N/A   Clear
6:51 AM 61.0 °F - 57.0 °F 87% 30.12 in 10.0 mi Calm Calm - N/A Fog Shallow Fog
7:51 AM 63.0 °F - 59.0 °F 87% 30.12 in 10.0 mi South 5.8 mph - N/A Fog Shallow Fog
8:51 AM 68.0 °F - 60.1 °F 76% 30.12 in 10.0 mi SSW 8.1 mph - N/A   Clear
9:51 AM 72.0 °F - 61.0 °F 68% 30.12 in 10.0 mi SW 8.1 mph - N/A   Scattered Clouds
10:51 AM 75.0 °F - 59.0 °F 57% 30.10 in 10.0 mi South 10.4 mph - N/A   Clear
11:51 AM 78.1 °F - 57.0 °F 48% 30.09 in 10.0 mi South 11.5 mph - N/A   Mostly Cloudy
12:51 PM 81.0 °F 81.3 °F 59.0 °F 47% 30.08 in 10.0 mi South 12.7 mph - N/A   Clear
1:51 PM 84.0 °F 84.5 °F 62.1 °F 47% 30.05 in 10.0 mi SSW 12.7 mph 20.7 mph N/A   Scattered Clouds
2:51 PM 84.9 °F 86.6 °F 64.9 °F 51% 30.02 in 10.0 mi SSW 12.7 mph - N/A   Partly Cloudy
3:51 PM 84.0 °F 85.8 °F 64.9 °F 53% 30.01 in 10.0 mi South 8.1 mph 18.4 mph N/A   Scattered Clouds
4:51 PM 82.9 °F 85.0 °F 66.0 °F 56% 30.01 in 10.0 mi South 9.2 mph - N/A   Mostly Cloudy
5:51 PM 82.0 °F 84.5 °F 66.9 °F 60% 30.01 in 10.0 mi South 8.1 mph - N/A   Mostly Cloudy
6:51 PM 79.0 °F - 68.0 °F 69% 30.03 in 10.0 mi South 4.6 mph - N/A   Mostly Cloudy
7:51 PM 77.0 °F - 68.0 °F 74% 30.03 in 10.0 mi South 6.9 mph - N/A   Partly Cloudy
8:51 PM 77.0 °F - 68.0 °F 74% 30.05 in 10.0 mi Calm Calm - N/A   Overcast
9:51 PM 75.0 °F - 68.0 °F 79% 30.06 in 10.0 mi SSW 3.5 mph - N/A   Clear
10:51 PM 75.0 °F - 69.1 °F 82% 30.07 in 10.0 mi Calm Calm - N/A   Clear
11:51 PM 73.0 °F - 68.0 °F 84% 30.06 in 10.0 mi Calm Calm - N/A   Clear